Houlton, ME

9:09 AM EDT on April 27, 2017 (GMT -0400)
Houlton International

Weather History for KHUL - February, 2012

Change the Weather History Date:

Thursday, February 23, 2012

  Actual Average Record
Temperature  
Mean Temperature 33 °F 18 °F  
Max Temperature 37 °F 29 °F 58 °F (1981)
Min Temperature 28 °F 6 °F -24 °F (1972)
Degree Days  
Heating Degree Days 32 47  
Month to date heating degree days 1107 1165  
Since 1 July heating degree days 5534 6340  
Cooling Degree Days 0 0  
Month to date cooling degree days 0 0  
Year to date cooling degree days 0 0  
Moisture  
Dew Point 31 °F    
Average Humidity 88    
Maximum Humidity 100    
Minimum Humidity 75    
Precipitation  
Precipitation 0.77 in 0.08 in 1.05 in (1950)
Month to date precipitation 1.23 1.63  
Year to date precipitation 3.19 4.49  
Sea Level Pressure  
Sea Level Pressure 29.39 in    
Wind  
Wind Speed 5 mph (WNW)    
Max Wind Speed 16 mph    
Max Gust Speed 26 mph    
Visibility 5 miles    
Events Fog , Rain , Snow    
T = Trace of Precipitation, MM = Missing Value Source: NWS Daily Summary

Daily Weather History Graph

Daily Weather History Graph

Search for Another Location

Airport or City:

Trip Planner

Search our weather history database for the weather conditions in past years. The results will help you decide how hot, cold, wet, or windy it might be!

Date:

Astronomy

Feb. 23, 2012 Rise Set
Actual Time 6:21 AM EST 5:08 PM EST
Civil Twilight 5:51 AM EST 5:38 PM EST
Nautical Twilight 5:16 AM EST 6:13 PM EST
Astronomical Twilight 4:42 AM EST 6:48 PM EST
Moon 6:37 AM EST (2/23) 7:20 PM EST (2/23)
Length of Visible Light 11h 47m
Length of Day
10h 46m
Waxing Crescent, 3% of the Moon is Illuminated
Feb 23
Waxing Crescent
Feb 29
First Quarter
Mar 8
Full
Mar 14
Last Quarter
Mar 22
New

Hourly Weather History & Observations

Time (EST) Temp. Windchill Dew Point Humidity Pressure Visibility Wind Dir Wind Speed Gust Speed Precip Events Conditions
12:53 AM 33.1 °F - 30.9 °F 92% 29.51 in 6.0 mi Calm Calm - N/A   Overcast
1:53 AM 32.0 °F - 30.0 °F 92% 29.51 in 5.0 mi Calm Calm - N/A   Overcast
2:47 AM 30.2 °F 25.4 °F 28.4 °F 93% 29.47 in 1.5 mi North 4.6 mph - N/A   Overcast
2:53 AM 28.9 °F 25.2 °F 28.0 °F 96% 29.48 in 0.8 mi NNE 3.5 mph - N/A   Overcast
3:03 AM 30.2 °F - 28.4 °F 93% 29.46 in 0.2 mi Calm Calm - N/A Fog Light Freezing Fog
3:53 AM 28.9 °F - 27.0 °F 92% 29.47 in 0.5 mi Calm Calm - N/A Fog Light Freezing Fog
4:02 AM 28.4 °F - 26.6 °F 93% 29.44 in 1.5 mi Calm Calm - N/A   Overcast
4:05 AM 28.4 °F - 26.6 °F 93% 29.44 in 2.0 mi Calm Calm - N/A   Mostly Cloudy
4:28 AM 30.2 °F - 28.4 °F 93% 29.43 in 8.0 mi Calm Calm - N/A   Scattered Clouds
4:53 AM 32.0 °F 24.8 °F 30.0 °F 92% 29.44 in 10.0 mi SSE 8.1 mph - N/A   Clear
5:53 AM 32.0 °F 28.7 °F 28.9 °F 88% 29.43 in 9.0 mi Variable 3.5 mph - N/A   Scattered Clouds
6:53 AM 32.0 °F - 30.0 °F 92% 29.42 in 8.0 mi Calm Calm - N/A   Clear
7:53 AM 35.1 °F 31.0 °F 32.0 °F 89% 29.40 in 8.0 mi Variable 4.6 mph - N/A   Overcast
8:46 AM 37.4 °F 33.8 °F 33.8 °F 87% 29.37 in 8.0 mi South 4.6 mph - N/A   Mostly Cloudy
8:53 AM 37.0 °F - 34.0 °F 89% 29.39 in 7.0 mi Calm Calm - N/A   Mostly Cloudy
9:01 AM 37.4 °F 34.9 °F 33.8 °F 87% 29.37 in 7.0 mi Variable 3.5 mph - N/A   Overcast
9:37 AM 33.8 °F 28.6 °F 32.0 °F 93% 29.38 in 1.8 mi West 5.8 mph - 0.03 in Rain Rain
9:53 AM 34.0 °F - 33.1 °F 96% 29.39 in 1.5 mi Calm Calm - 0.07 in Rain Rain
10:01 AM 35.6 °F - 33.8 °F 93% 29.37 in 1.2 mi Calm Calm - 0.03 in Rain Rain
10:06 AM 35.6 °F 32.8 °F 33.8 °F 93% 29.37 in 1.5 mi South 3.5 mph - 0.05 in Rain Rain
10:23 AM 35.6 °F 29.9 °F 33.8 °F 93% 29.36 in 2.0 mi SSW 6.9 mph - 0.11 in Rain Rain
10:53 AM 37.4 °F 30.8 °F 35.6 °F 93% 29.36 in 2.0 mi South 9.2 mph - N/A Rain Rain
11:23 AM 37.4 °F 33.8 °F 35.6 °F 93% 29.35 in 3.0 mi SSW 4.6 mph - 0.08 in Rain Rain
11:34 AM 37.4 °F 32.8 °F 35.6 °F 93% 29.34 in 2.5 mi SSW 5.8 mph - 0.12 in Rain Rain
11:50 AM 37.4 °F 33.8 °F 35.6 °F 93% 29.33 in 2.0 mi SW 4.6 mph - 0.17 in Rain Rain
11:53 AM 37.0 °F 33.3 °F 35.1 °F 93% 29.35 in 2.5 mi SW 4.6 mph - 0.18 in Rain Rain
12:11 PM 37.4 °F 33.8 °F 35.6 °F 93% 29.32 in 3.0 mi SSW 4.6 mph - 0.05 in Rain Rain
12:53 PM 36.0 °F 32.1 °F 34.0 °F 93% 29.32 in 4.0 mi SSW 4.6 mph - 0.12 in Rain Rain
1:38 PM 33.8 °F 30.8 °F 32.0 °F 93% 29.29 in 1.8 mi NW 3.5 mph - 0.07 in Snow Light Snow
1:46 PM 33.8 °F - 32.0 °F 93% 29.29 in 0.8 mi Calm Calm - 0.08 in Snow Light Snow
1:53 PM 33.1 °F - 32.0 °F 96% 29.31 in 0.8 mi Calm Calm - 0.09 in Snow Light Snow
2:18 PM 33.8 °F - 32.0 °F 93% 29.29 in 0.5 mi Calm Calm - 0.02 in Fog , Snow Snow
2:39 PM 33.8 °F - 32.0 °F 93% 29.29 in 0.8 mi Calm Calm - 0.04 in Snow Light Snow
2:53 PM 33.1 °F - 30.9 °F 92% 29.31 in 1.0 mi Calm Calm - 0.05 in Snow Light Snow
3:10 PM 33.8 °F - 30.2 °F 87% 29.30 in 1.2 mi Calm Calm - 0.00 in Snow Light Snow
3:23 PM 33.8 °F - 32.0 °F 93% 29.30 in 0.8 mi Calm Calm - 0.01 in Snow Light Snow
3:34 PM 33.8 °F - 30.2 °F 87% 29.30 in 1.2 mi Calm Calm - 0.02 in Snow Light Snow
3:39 PM 33.8 °F 30.8 °F 30.2 °F 87% 29.30 in 2.0 mi NNW 3.5 mph - 0.02 in Snow Light Snow
3:46 PM 33.8 °F - 30.2 °F 87% 29.31 in 2.5 mi Calm Calm - 0.02 in Snow Light Snow
3:53 PM 33.1 °F - 30.9 °F 92% 29.33 in 2.5 mi Calm Calm - 0.02 in Snow Light Snow
3:58 PM 33.8 °F - 32.0 °F 93% 29.31 in 3.0 mi Calm Calm - 0.00 in Snow Light Snow
4:05 PM 33.8 °F - 32.0 °F 93% 29.32 in 4.0 mi Calm Calm - 0.00 in Snow Light Snow
4:53 PM 34.0 °F 29.8 °F 30.9 °F 89% 29.35 in 10.0 mi NNW 4.6 mph - 0.00 in   Overcast
5:53 PM 35.1 °F 30.1 °F 30.9 °F 85% 29.38 in 10.0 mi NNW 5.8 mph - N/A   Overcast
6:14 PM 35.6 °F 30.7 °F 32.0 °F 87% 29.37 in 10.0 mi NW 5.8 mph - N/A   Overcast
6:33 PM 35.6 °F 30.7 °F 32.0 °F 87% 29.38 in 10.0 mi NW 5.8 mph - N/A   Overcast
6:53 PM 35.1 °F 29.3 °F 32.0 °F 89% 29.41 in 10.0 mi NW 6.9 mph - N/A   Overcast
7:43 PM 35.6 °F 28.0 °F 32.0 °F 87% 29.41 in 10.0 mi WNW 10.4 mph - N/A   Overcast
7:53 PM 35.1 °F 26.9 °F 30.9 °F 85% 29.43 in 10.0 mi WNW 11.5 mph - N/A   Overcast
8:26 PM 35.6 °F 28.6 °F 30.2 °F 81% 29.43 in 10.0 mi WNW 9.2 mph 17.3 mph N/A   Overcast
8:53 PM 34.0 °F 26.6 °F 30.0 °F 85% 29.45 in 10.0 mi WNW 9.2 mph 17.3 mph N/A   Overcast
9:03 PM 33.8 °F 25.8 °F 30.2 °F 87% 29.44 in 10.0 mi WNW 10.4 mph - N/A   Overcast
9:11 PM 33.8 °F 25.3 °F 30.2 °F 87% 29.45 in 10.0 mi NW 11.5 mph 17.3 mph N/A   Overcast
9:53 PM 34.0 °F 25.5 °F 28.0 °F 79% 29.49 in 10.0 mi WNW 11.5 mph 19.6 mph N/A   Overcast
10:53 PM 33.1 °F 24.9 °F 27.0 °F 78% 29.53 in 10.0 mi NW 10.4 mph 23.0 mph N/A   Overcast
11:53 PM 33.1 °F 24.9 °F 27.0 °F 78% 29.57 in 10.0 mi NNW 10.4 mph - N/A   Overcast